Time,TemperatureF,DewpointF,PressureIn,WindDirection,WindDirectionDegrees,WindSpeedMPH,WindSpeedGustMPH,Humidity,HourlyPrecipIn,Conditions,Clouds,dailyrainin,SoftwareType,DateUTC
2013-01-31 05:55:00,54.5,46.1,28.44,North,0,34.8,34.8,73,0.24,,,0.00,WUHU216HW,2013-01-31 10:55:00,
2013-01-31 06:00:00,54.5,45.4,28.44,North,0,27.0,46.0,71,0.24,,,0.73,WUHU216HW,2013-01-31 11:00:00,
2013-01-31 06:05:00,37.4,29.2,28.45,North,0,19.0,46.0,72,0.24,,,0.73,WUHU216HW,2013-01-31 11:05:00,
2013-01-31 06:10:00,37.0,28.8,28.45,North,0,21.9,39.5,72,0.32,,,0.73,WUHU216HW,2013-01-31 11:10:00,
2013-01-31 06:15:00,36.5,28.3,28.45,North,0,35.7,39.5,72,0.32,,,0.73,WUHU216HW,2013-01-31 11:15:00,
2013-01-31 06:20:00,36.3,27.8,28.46,SSW,203,18.7,40.0,71,0.35,,,0.73,WUHU216HW,2013-01-31 11:20:00,
2013-01-31 06:25:00,36.1,26.9,28.46,SW,225,34.2,60.6,69,0.73,,,0.73,WUHU216HW,2013-01-31 11:25:00,
2013-01-31 06:31:00,35.9,27.1,28.47,SSW,203,16.5,60.6,70,0.87,,,0.73,WUHU216HW,2013-01-31 11:31:00,
2013-01-31 06:36:00,35.7,26.2,28.48,NNW,338,25.9,41.8,68,0.87,,,0.73,WUHU216HW,2013-01-31 11:36:00,
2013-01-31 06:41:00,35.7,26.9,28.49,North,0,25.0,31.9,70,0.87,,,0.73,WUHU216HW,2013-01-31 11:41:00,
2013-01-31 06:46:00,35.4,26.2,28.49,North,0,28.4,34.4,69,0.89,,,0.73,WUHU216HW,2013-01-31 11:46:00,
2013-01-31 06:51:00,35.4,26.2,28.49,SSW,203,14.5,38.6,69,0.92,,,0.73,WUHU216HW,2013-01-31 11:51:00,
2013-01-31 06:56:00,35.4,26.6,28.50,North,0,20.5,38.6,70,0.67,,,0.73,WUHU216HW,2013-01-31 11:56:00,
2013-01-31 07:01:00,35.2,26.0,28.51,SSW,203,12.9,29.7,69,0.67,,,0.73,WUHU216HW,2013-01-31 12:01:00,
2013-01-31 07:06:00,34.8,24.9,28.52,North,0,28.8,34.8,67,0.59,,,0.73,WUHU216HW,2013-01-31 12:06:00,
2013-01-31 07:12:00,34.7,24.8,28.53,North,0,19.6,37.5,67,0.61,,,0.73,WUHU216HW,2013-01-31 12:12:00,
2013-01-31 07:17:00,34.3,24.4,28.53,North,0,19.9,29.7,67,0.59,,,0.73,WUHU216HW,2013-01-31 12:17:00,
2013-01-31 07:22:00,34.3,23.7,28.54,SSW,203,21.6,24.1,65,0.37,,,0.73,WUHU216HW,2013-01-31 12:22:00,
2013-01-31 07:27:00,34.3,23.7,28.54,North,0,22.5,31.3,65,0.10,,,0.73,WUHU216HW,2013-01-31 12:27:00,
2013-01-31 07:32:00,34.1,23.7,28.55,North,0,36.4,38.2,66,0.10,,,0.73,WUHU216HW,2013-01-31 12:32:00,
2013-01-31 07:37:00,33.9,24.0,28.56,SSW,203,13.8,38.2,67,0.10,,,0.73,WUHU216HW,2013-01-31 12:37:00,
2013-01-31 07:42:00,33.6,22.6,28.56,SSW,203,16.7,34.2,64,0.12,,,0.73,WUHU216HW,2013-01-31 12:42:00,
2013-01-31 07:47:00,33.4,22.8,28.57,SW,225,17.6,34.2,65,0.16,,,0.73,WUHU216HW,2013-01-31 12:47:00,
2013-01-31 07:53:00,33.0,23.2,28.58,SSW,203,13.8,20.8,67,0.18,,,0.73,WUHU216HW,2013-01-31 12:53:00,
2013-01-31 07:58:00,33.0,23.2,28.59,SSW,203,18.3,20.8,67,0.18,,,0.73,WUHU216HW,2013-01-31 12:58:00,
2013-01-31 08:03:00,32.9,22.7,28.59,SSW,203,19.4,27.5,66,0.18,,,0.73,WUHU216HW,2013-01-31 13:03:00,
2013-01-31 08:08:00,32.7,22.0,28.59,SSW,203,18.3,27.5,65,0.16,,,0.73,WUHU216HW,2013-01-31 13:08:00,
2013-01-31 08:13:00,32.3,21.8,28.61,SSW,203,28.8,28.8,65,0.18,,,0.73,WUHU216HW,2013-01-31 13:13:00,
2013-01-31 08:18:00,32.3,22.2,28.61,North,0,36.6,36.6,66,0.18,,,0.73,WUHU216HW,2013-01-31 13:18:00,
2013-01-31 08:21:00,32.1,22.4,28.62,North,0,19.0,36.6,67,0.20,,,0.73,WUHU216HW,2013-01-31 13:21:00,
2013-01-31 17:39:00,32.1,22.4,28.62,North,0,19.0,19.0,67,0.20,,,0.73,WUHU216HW,2013-01-31 22:39:00,
2013-01-31 17:44:00,26.7,17.6,28.62,North,0,20.5,25.9,68,0.26,,,0.73,WUHU216HW,2013-01-31 22:44:00,
2013-01-31 17:49:00,26.4,17.7,28.62,North,0,19.2,25.9,69,0.18,,,0.73,WUHU216HW,2013-01-31 22:49:00,
2013-01-31 17:54:00,26.4,18.2,28.87,NNW,338,16.5,21.4,70,0.16,,,0.00,WUHU216HW,2013-01-31 22:54:00,
2013-01-31 17:59:00,26.2,18.3,28.88,NNW,338,12.5,17.4,72,0.12,,,0.00,WUHU216HW,2013-01-31 22:59:00,
2013-01-31 18:04:00,26.2,18.3,28.87,North,0,21.9,21.9,72,0.10,,,0.00,WUHU216HW,2013-01-31 23:04:00,
2013-01-31 18:09:00,26.2,18.3,28.88,SSW,203,11.8,21.9,72,0.06,,,0.00,WUHU216HW,2013-01-31 23:09:00,
2013-01-31 18:14:00,26.4,18.5,28.89,NNW,338,15.8,17.6,72,0.06,,,0.00,WUHU216HW,2013-01-31 23:14:00,
2013-01-31 18:19:00,26.2,18.6,28.89,North,0,16.5,35.7,73,0.08,,,0.01,WUHU216HW,2013-01-31 23:19:00,
2013-01-31 18:24:00,25.7,19.1,28.89,North,0,19.4,35.7,76,0.08,,,0.01,WUHU216HW,2013-01-31 23:24:00,
2013-01-31 18:29:00,24.9,19.0,28.89,SSW,203,16.7,25.9,78,0.04,,,0.01,WUHU216HW,2013-01-31 23:29:00,
2013-01-31 18:34:00,24.4,19.2,28.89,North,0,10.0,25.9,80,0.04,,,0.01,WUHU216HW,2013-01-31 23:34:00,
2013-01-31 18:39:00,24.0,19.1,28.89,SW,225,20.1,22.3,81,0.02,,,0.01,WUHU216HW,2013-01-31 23:39:00,
2013-01-31 18:44:00,24.4,19.2,28.89,North,0,25.2,25.2,80,0.02,,,0.01,WUHU216HW,2013-01-31 23:44:00,
2013-01-31 18:49:00,24.6,18.7,28.89,NNW,338,15.6,25.2,78,0.02,,,0.01,WUHU216HW,2013-01-31 23:49:00,
2013-01-31 18:54:00,24.8,18.6,28.90,North,0,18.1,24.3,77,0.04,,,0.03,WUHU216HW,2013-01-31 23:54:00,
2013-01-31 18:59:00,24.9,18.7,28.90,North,0,18.7,24.3,77,0.04,,,0.03,WUHU216HW,2013-01-31 23:59:00,
2013-01-31 19:04:00,24.9,18.7,28.90,North,0,18.7,19.2,77,0.06,,,0.05,WUHU216HW,2013-02-01 00:04:00,
2013-01-31 19:09:00,24.9,18.7,28.90,North,0,18.7,19.2,77,0.06,,,0.05,WUHU216HW,2013-02-01 00:09:00,
2013-01-31 19:14:00,24.6,18.4,28.90,SSW,203,20.8,20.8,77,0.04,,,0.05,WUHU216HW,2013-02-01 00:14:00,
2013-01-31 19:19:00,24.4,19.2,28.90,North,0,21.4,32.8,80,0.04,,,0.05,WUHU216HW,2013-02-01 00:19:00,
2013-01-31 19:24:00,24.0,19.6,28.90,SSW,203,19.4,32.8,83,0.08,,,0.10,WUHU216HW,2013-02-01 00:24:00,
2013-01-31 19:29:00,23.7,19.5,28.90,North,0,12.3,29.9,84,0.08,,,0.10,WUHU216HW,2013-02-01 00:29:00,
2013-01-31 19:34:00,23.7,19.8,28.90,North,0,21.9,29.9,85,0.08,,,0.10,WUHU216HW,2013-02-01 00:34:00,
2013-01-31 19:39:00,23.7,19.5,28.90,SSW,203,20.1,25.0,84,0.10,,,0.12,WUHU216HW,2013-02-01 00:39:00,
2013-01-31 19:44:00,23.5,19.4,28.91,SSW,203,20.3,25.0,84,0.10,,,0.12,WUHU216HW,2013-02-01 00:44:00,
2013-01-31 19:49:00,23.5,19.4,28.91,North,0,19.6,24.1,84,0.08,,,0.12,WUHU216HW,2013-02-01 00:49:00,
2013-01-31 19:54:00,23.3,19.4,28.90,North,0,19.6,20.3,85,0.08,,,0.12,WUHU216HW,2013-02-01 00:54:00,
2013-01-31 19:59:00,23.3,19.7,28.90,North,0,17.0,19.6,86,0.08,,,0.12,WUHU216HW,2013-02-01 00:59:00,
2013-01-31 20:04:00,23.3,19.7,28.90,North,0,21.2,21.2,86,0.06,,,0.12,WUHU216HW,2013-02-01 01:04:00,
2013-01-31 20:09:00,23.3,19.4,28.90,SSW,203,12.9,23.0,85,0.06,,,0.12,WUHU216HW,2013-02-01 01:09:00,
2013-01-31 20:14:00,23.1,19.0,28.90,SSW,203,10.0,23.0,84,0.06,,,0.12,WUHU216HW,2013-02-01 01:14:00,
2013-01-31 20:19:00,23.5,19.1,28.90,SSW,203,16.5,16.5,83,0.06,,,0.12,WUHU216HW,2013-02-01 01:19:00,
2013-01-31 20:25:00,23.5,18.8,28.91,SSW,203,16.7,16.7,82,0.02,,,0.12,WUHU216HW,2013-02-01 01:25:00,
2013-01-31 20:30:00,23.5,19.1,28.91,SSW,203,15.4,18.5,83,0.04,,,0.14,WUHU216HW,2013-02-01 01:30:00,
2013-01-31 20:35:00,23.1,19.0,28.91,SSW,203,21.9,27.5,84,0.02,,,0.14,WUHU216HW,2013-02-01 01:35:00,
2013-01-31 20:40:00,23.1,19.0,28.91,SSW,203,11.1,27.5,84,0.02,,,0.14,WUHU216HW,2013-02-01 01:40:00,
2013-01-31 20:45:00,23.1,19.3,28.92,North,0,13.4,21.9,85,0.02,,,0.14,WUHU216HW,2013-02-01 01:45:00,
2013-01-31 20:50:00,23.1,19.3,28.92,North,0,18.5,18.5,85,0.02,,,0.14,WUHU216HW,2013-02-01 01:50:00,
2013-01-31 20:55:00,23.1,19.3,28.92,North,0,14.9,18.5,85,0.02,,,0.14,WUHU216HW,2013-02-01 01:55:00,
2013-01-31 21:00:00,23.0,19.1,28.92,North,0,14.0,18.5,85,0.02,,,0.14,WUHU216HW,2013-02-01 02:00:00,
2013-01-31 21:06:00,22.8,18.9,28.92,North,0,16.5,18.5,85,0.02,,,0.14,WUHU216HW,2013-02-01 02:06:00,
2013-01-31 21:11:00,22.8,18.9,28.92,SSW,203,11.4,16.5,85,0.02,,,0.14,WUHU216HW,2013-02-01 02:11:00,
2013-01-31 21:16:00,22.8,18.9,28.92,North,0,20.3,21.9,85,0.02,,,0.14,WUHU216HW,2013-02-01 02:16:00,
2013-01-31 21:21:00,22.6,18.5,28.93,SSW,203,15.2,21.9,84,0.02,,,0.14,WUHU216HW,2013-02-01 02:21:00,
2013-01-31 21:26:00,22.6,18.5,28.93,SSW,203,18.5,20.3,84,0.00,,,0.14,WUHU216HW,2013-02-01 02:26:00,
2013-01-31 21:31:00,22.2,18.1,28.93,SSW,203,19.6,19.9,84,0.00,,,0.14,WUHU216HW,2013-02-01 02:31:00,
2013-01-31 21:36:00,22.1,17.9,28.93,North,0,16.5,19.9,84,0.00,,,0.14,WUHU216HW,2013-02-01 02:36:00,
2013-01-31 21:49:00,22.1,17.4,28.94,North,0,15.4,21.6,82,0.00,,,0.14,WUHU216HW,2013-02-01 02:49:00,
2013-01-31 21:54:00,22.1,17.4,28.94,SSW,203,12.3,17.2,82,0.00,,,0.14,WUHU216HW,2013-02-01 02:54:00,
2013-01-31 21:59:00,22.1,17.1,28.94,North,0,15.4,15.4,81,0.00,,,0.14,WUHU216HW,2013-02-01 02:59:00,
2013-01-31 22:04:00,22.1,16.8,28.94,North,0,18.7,18.7,80,0.00,,,0.14,WUHU216HW,2013-02-01 03:04:00,
2013-01-31 22:09:00,22.2,17.0,28.94,SSW,203,10.0,22.1,80,0.00,,,0.14,WUHU216HW,2013-02-01 03:09:00,
2013-01-31 22:14:00,22.2,16.7,28.94,North,0,17.4,22.1,79,0.00,,,0.14,WUHU216HW,2013-02-01 03:14:00,
2013-01-31 22:19:00,22.2,16.4,28.95,North,0,19.4,19.4,78,0.00,,,0.14,WUHU216HW,2013-02-01 03:19:00,
2013-01-31 22:24:00,22.2,16.4,28.95,SSW,203,19.2,19.4,78,0.00,,,0.14,WUHU216HW,2013-02-01 03:24:00,
2013-01-31 22:29:00,22.1,16.2,28.94,North,0,18.1,19.4,78,0.00,,,0.14,WUHU216HW,2013-02-01 03:29:00,
2013-01-31 22:34:00,22.1,15.9,28.94,North,0,17.4,19.4,77,0.00,,,0.14,WUHU216HW,2013-02-01 03:34:00,
2013-01-31 22:39:00,22.1,15.6,28.95,North,0,10.7,19.2,76,0.00,,,0.14,WUHU216HW,2013-02-01 03:39:00,
2013-01-31 22:44:00,22.1,15.6,28.94,North,0,17.2,19.2,76,0.00,,,0.14,WUHU216HW,2013-02-01 03:44:00,
2013-01-31 22:45:00,22.1,15.6,28.94,North,0,15.8,19.2,76,0.00,,,0.14,WUHU216HW,2013-02-01 03:45:00,
2013-01-31 22:50:00,21.9,15.4,28.95,North,0,12.3,17.2,76,0.00,,,0.14,WUHU216HW,2013-02-01 03:50:00,
2013-01-31 22:55:00,21.9,14.8,28.95,SSW,203,17.2,17.2,74,0.00,,,0.14,WUHU216HW,2013-02-01 03:55:00,
2013-01-31 23:00:00,21.9,14.5,28.95,North,0,12.5,20.8,73,0.00,,,0.14,WUHU216HW,2013-02-01 04:00:00,
2013-01-31 23:05:00,21.9,14.2,28.95,SSW,203,14.9,20.8,72,0.00,,,0.14,WUHU216HW,2013-02-01 04:05:00,
2013-01-31 23:10:00,21.9,14.2,28.95,North,0,13.1,17.4,72,0.00,,,0.14,WUHU216HW,2013-02-01 04:10:00,
2013-01-31 23:15:00,21.7,13.4,28.95,North,0,17.8,17.8,70,0.00,,,0.14,WUHU216HW,2013-02-01 04:15:00,
2013-01-31 23:20:00,21.7,13.7,28.96,North,0,13.6,17.8,71,0.00,,,0.14,WUHU216HW,2013-02-01 04:20:00,
2013-01-31 23:26:00,21.7,13.7,28.96,North,0,22.1,22.1,71,0.00,,,0.14,WUHU216HW,2013-02-01 04:26:00,
2013-01-31 23:31:00,21.7,13.7,28.96,North,0,20.1,22.1,71,0.00,,,0.14,WUHU216HW,2013-02-01 04:31:00,
2013-01-31 23:36:00,21.5,13.2,28.96,NNW,338,12.5,20.1,70,0.00,,,0.14,WUHU216HW,2013-02-01 04:36:00,
2013-01-31 23:41:00,21.3,13.1,28.96,North,0,21.0,21.0,70,0.00,,,0.14,WUHU216HW,2013-02-01 04:41:00,
2013-01-31 23:46:00,21.3,13.1,28.97,SSW,203,15.2,21.0,70,0.00,,,0.14,WUHU216HW,2013-02-01 04:46:00,
2013-01-31 23:51:00,21.5,13.2,28.97,North,0,15.8,18.7,70,0.00,,,0.14,WUHU216HW,2013-02-01 04:51:00,
2013-01-31 23:56:00,21.5,13.2,28.97,SSW,203,20.3,20.3,70,0.00,,,0.14,WUHU216HW,2013-02-01 04:56:00,